DELTA 1 DEB, 21342

Orbit data source: Space-Track

DELTA 1 DEB, 21342 is space debris in SSO originally from a launch on Thu, 12 Jun 1975 UTC launched from the Air Force Western Test Range (AFWTR). Debris objects in space refer to the collection of defunct objects orbiting the Earth. Examples of debris include non-operational satellites, rocket bodies, and fragments generated from explosions, collisions, or faulty payload assembly.

Loading next visibility...
Identifier
21342, 1975-052BL
Orbit
SSO
Country
Flag of USUS
Related business
Manufacturer
Unknown
Mission
Spacecraft
Bus & Motor
Unknown
Mass
Unknown
Launch date (UTC)
1975-06-12 (51 years ago)
Launch vehicle
Unknown
Launch site
Air Force Western Test Range (AFWTR)
Object type
Payload
Rocket body
Debris
Shape & HBR
Unknown shape, 0.1 m
Radar Cross Section
Small (<0.1 m²)

Expand to show TLE details & history
Last TLE update: 16 hours ago

TLE from 16 hours ago
0 DELTA 1 DEB
1 21342U 75052BL  26124.50590294  .00005342  00000-0  15707-2 0  9996
2 21342  99.9986 135.4919 0121925  45.2147 106.5893 14.39997065798985
Epoch: 2026-05-04T12:08Z
TLE epoch observation values (Epoch: 2026-05-04T12:08:30.014Z)
Latitude
26.46022°
Longitude
-84.02004°
Altitude
787.52 km
Speed
7.449 km/s
True Right ascension
21h 21m 59s
True Declination
26° 19' 26"
Sunlit
Object was in daylight at epoch
Visualization orbit readout
Latitude
Unknown
Longitude
Unknown
Altitude
Unknown
Speed
Unknown
Apparent Right ascension
Unknown
Apparent Declination
Unknown
Sunlit
N/A
Visualization observer readout
Local Sidereal Time
12:29:58
Azimuth
Unknown
Elevation
Unknown
Doppler factor
Unknown
Orbital elements
Apogee altitude
842.686 km
Perigee altitude
668.727 km
Semi-major axis
7,133.843 km
Eccentricity
0.01219
Inclination
99.9986°
RAAN
135.4919°
Arg. of periapsis
45.2147°
True anomaly
107.92238°
Mean anomaly
106.5893°
Eccentric anomaly
107.25643°
Mean motion
3.60212 °/min
Orbital period
99.94 mins
BSTAR
0.0015707
Loading maneuver chart data...
Computing Atmospheric mass density...
Loading historical data...
Loading historical data...
Loading historical data...
Loading historical data...
Loading historical data...
Loading historical data...
Loading historical data...

Documentation

Showing up to 5 results
|